Weather in Ostrovskoe

Russia / Kostroma Oblast     57°48′18″N   42°14′26″E
temp.,
°C
wind,
m/s
gust,
m/s
humid.,
%
clouds,
%
prec.,
mm/h
press.,
hPa
HPBL,
m
7 may, fri
fri700:00+10sw51281100 0.1 1005745
03:00+8wsw3689100 0.4 1007339
06:00+8sw3788100 0.0 1007444
09:00+10sw3571100 0.0 10081056
12:00+10wsw4666100 0.2 10091321
15:00+12wsw584488 0.3 10102367
18:00+11w38610 0.1 10111360
21:00+6ssw24750 0.1 101362
8 may, sat
sat800:00+4s24795 0.0 101467
03:00+4sse377897 0.0 1015125
06:00+6sse31076100 0.0 1015277
09:00+12sse5105397 0.0 10141248
12:00+14sse6945100 0.0 10122114
15:00+12sse51061100 0.1 10101712
18:00+10sse61278100 0.8 10091282
21:00+8se51391100 5.1 1007911
9 may, sun
sun900:00+8sse51396100 3.7 1005733
03:00+9se31097100 5.3 1004575
06:00+9se2798100 0.4 1005361
09:00+10sse2699100 1.8 1005334
12:00+10sse2596100 1.5 1007271
15:00+11sw3589100 2.6 1009504
18:00+6nw51094100 0.4 1013551
21:00+5nnw51193100 0.4 1017682
10 may, mon
mon1000:00+6nnw51192100 0.0 1019805
03:00+4nnw4119644 0.0 1022434
06:00+4nnw411880 0.0 1026427
09:00+9n47550 0.0 1027843
12:00+13n34422 0.0 10281262
15:00+14nnw2340100 0.0 10281458
18:00+13nnw23565 0.0 1029180
21:00+8n116649 0.0 103012
11 may, tue
tue1100:00+6nnw11705 0.0 103110
03:00+6ne117318 0.0 103210
06:00+8se017097 0.0 103239
09:00+14sse125299 0.0 1033483
12:00+18sse114688 0.0 10321016
15:00+19nne0148100 0.0 10311121
18:00+17ne116314 0.0 103090
21:00+12ene11758 0.0 103010